29-09-2022, 00:00:08,    205,    0.0,    5.6,   0.00,   0.00,  998.5,   77.6, -999.0
29-09-2022, 00:00:18,    205,    0.0,    5.6,   0.00,   0.00,  998.5,   77.6, -999.0
29-09-2022, 00:00:28,    205,    0.0,    5.6,   0.00,   0.00,  998.5,   77.6, -999.0
29-09-2022, 00:00:37,    205,    0.0,    5.6,   0.00,   0.00,  998.5,   77.5, -999.0
29-09-2022, 00:00:48,    205,    0.0,    5.6,   0.00,   0.00,  998.5,   77.5, -999.0
29-09-2022, 00:00:57,    205,    0.0,    5.5,   0.00,   0.00,  998.5,   77.4, -999.0
29-09-2022, 00:01:07,    205,    0.0,    5.5,   0.00,   0.00,  998.5,   77.4, -999.0
29-09-2022, 00:01:18,    205,    0.0,    5.6,   0.00,   0.00,  998.5,   77.3, -999.0
29-09-2022, 00:01:27,    205,    0.0,    5.6,   0.00,   0.00,  998.5,   77.3, -999.0
29-09-2022, 00:01:37,    205,    0.0,    5.6,   0.00,   0.00,  998.5,   77.3, -999.0
29-09-2022, 00:01:47,    206,    0.0,    5.5,   0.00,   0.00,  998.4,   77.4, -999.0
29-09-2022, 00:01:57,    205,    0.0,    5.6,   0.00,   0.00,  998.5,   77.4, -999.0
29-09-2022, 00:02:07,    205,    0.0,    5.5,   0.00,   0.00,  998.5,   77.4, -999.0
29-09-2022, 00:02:17,    205,    0.0,    5.5,   0.00,   0.00,  998.5,   77.5, -999.0
29-09-2022, 00:02:27,    205,    0.0,    5.5,   0.00,   0.00,  998.4,   77.5, -999.0
29-09-2022, 00:02:37,    205,    0.0,    5.5,   0.00,   0.00,  998.5,   77.5, -999.0
29-09-2022, 00:02:47,    205,    0.0,    5.5,   0.00,   0.00,  998.5,   77.5, -999.0
29-09-2022, 00:02:57,    205,    0.0,    5.4,   0.00,   0.00,  998.4,   77.5, -999.0
29-09-2022, 00:03:07,    205,    0.0,    5.4,   0.00,   0.00,  998.5,   77.5, -999.0
29-09-2022, 00:03:17,    206,    0.0,    5.4,   0.00,   0.00,  998.4,   77.3, -999.0
29-09-2022, 00:03:27,    205,    0.0,    5.4,   0.00,   0.00,  998.4,   77.4, -999.0
29-09-2022, 00:03:37,    205,    0.0,    5.4,   0.00,   0.00,  998.5,   77.4, -999.0
29-09-2022, 00:03:46,    205,    0.0,    5.4,   0.00,   0.00,  998.5,   77.4, -999.0
29-09-2022, 00:03:57,    206,    0.0,    5.4,   0.00,   0.00,  998.5,   77.5, -999.0
29-09-2022, 00:04:07,    206,    0.0,    5.5,   0.00,   0.00,  998.4,   77.5, -999.0
29-09-2022, 00:04:16,    206,    0.0,    5.4,   0.00,   0.00,  998.4,   77.6, -999.0
29-09-2022, 00:04:27,    212,    0.0,    5.5,   0.00,   0.00,  998.4,   77.6, -999.0
29-09-2022, 00:04:36,    212,    0.0,    5.4,   0.00,   0.00,  998.4,   77.5, -999.0
29-09-2022, 00:04:46,    212,    0.0,    5.5,   0.00,   0.00,  998.4,   77.5, -999.0
29-09-2022, 00:04:56,    212,    0.0,    5.3,   0.00,   0.00,  998.4,   77.4, -999.0
29-09-2022, 00:05:06,    212,    0.0,    5.4,   0.00,   0.00,  998.4,   77.5, -999.0
29-09-2022, 00:05:16,    214,    0.0,    5.4,   0.00,   0.00,  998.4,   77.5, -999.0
29-09-2022, 00:05:26,    214,    0.0,    5.4,   0.00,   0.00,  998.4,   77.5, -999.0
29-09-2022, 00:05:36,    214,    0.0,    5.5,   0.00,   0.00,  998.4,   77.5, -999.0
29-09-2022, 00:05:46,    214,    0.0,    5.5,   0.00,   0.00,  998.4,   77.5, -999.0
29-09-2022, 00:05:56,    214,    0.0,    5.4,   0.00,   0.00,  998.4,   77.5, -999.0
29-09-2022, 00:06:06,    214,    0.0,    5.4,   0.00,   0.00,  998.4,   77.5, -999.0
29-09-2022, 00:06:16,    214,    0.0,    5.5,   0.00,   0.00,  998.4,   77.5, -999.0
29-09-2022, 00:06:26,    218,    0.5,    5.5,   0.00,   0.00,  998.5,   77.7, -999.0
29-09-2022, 00:06:36,    224,    1.1,    5.5,   0.00,   0.00,  998.6,   77.9, -999.0
29-09-2022, 00:06:46,    223,    0.5,    5.5,   0.00,   0.00,  998.6,   77.8, -999.0
29-09-2022, 00:06:55,    225,    0.0,    5.5,   0.00,   0.00,  998.5,   77.5, -999.0
29-09-2022, 00:07:06,    228,    0.8,    5.3,   0.00,   0.00,  998.5,   77.8, -999.0
29-09-2022, 00:07:16,    228,    0.9,    5.6,   0.00,   0.00,  998.5,   77.8, -999.0
29-09-2022, 00:07:25,    227,    0.3,    5.6,   0.00,   0.00,  998.5,   77.6, -999.0
29-09-2022, 00:07:36,    228,    0.0,    5.4,   0.00,   0.00,  998.4,   77.5, -999.0
29-09-2022, 00:07:46,    229,    0.0,    5.4,   0.00,   0.00,  998.4,   77.3, -999.0
29-09-2022, 00:07:55,    229,    0.0,    5.4,   0.00,   0.00,  998.4,   77.4, -999.0
29-09-2022, 00:08:05,    229,    0.0,    5.4,   0.00,   0.00,  998.4,   77.5, -999.0
29-09-2022, 00:08:15,    230,    0.0,    5.4,   0.00,   0.00,  998.4,   77.5, -999.0
29-09-2022, 00:08:25,    230,    0.0,    5.5,   0.00,   0.00,  998.5,   77.6, -999.0
29-09-2022, 00:08:35,    230,    0.0,    5.4,   0.00,   0.00,  998.4,   77.5, -999.0
29-09-2022, 00:08:46,    230,    0.0,    5.4,   0.00,   0.00,  998.4,   77.7, -999.0
29-09-2022, 00:08:55,    231,    0.1,    5.5,   0.00,   0.00,  998.5,   77.8, -999.0
29-09-2022, 00:09:05,    231,    0.0,    5.5,   0.00,   0.00,  998.4,   77.6, -999.0
29-09-2022, 00:09:15,    231,    0.0,    5.4,   0.00,   0.00,  998.4,   77.4, -999.0
29-09-2022, 00:09:25,    231,    0.0,    5.3,   0.00,   0.00,  998.4,   77.4, -999.0
29-09-2022, 00:09:35,    232,    0.0,    5.4,   0.00,   0.00,  998.4,   77.4, -999.0
29-09-2022, 00:09:45,    232,    0.0,    5.5,   0.00,   0.00,  998.4,   77.5, -999.0
29-09-2022, 00:09:55,    231,    0.0,    5.5,   0.00,   0.00,  998.4,   77.5, -999.0
29-09-2022, 00:10:05,    231,    0.0,    5.4,   0.00,   0.00,  998.4,   77.5, -999.0
29-09-2022, 00:10:15,    231,    0.0,    5.5,   0.00,   0.00,  998.4,   77.5, -999.0
29-09-2022, 00:10:25,    232,    0.0,    5.5,   0.00,   0.00,  998.4,   77.4, -999.0
29-09-2022, 00:10:34,    232,    0.0,    5.5,   0.00,   0.00,  998.4,   77.4, -999.0
29-09-2022, 00:10:45,    232,    0.0,    5.5,   0.00,   0.00,  998.4,   77.4, -999.0
29-09-2022, 00:10:55,    231,    0.0,    5.4,   0.00,   0.00,  998.4,   77.4, -999.0
29-09-2022, 00:11:04,    232,    0.0,    5.4,   0.00,   0.00,  998.4,   77.4, -999.0
29-09-2022, 00:11:14,    231,    0.0,    5.5,   0.00,   0.00,  998.4,   77.4, -999.0
29-09-2022, 00:11:25,    232,    0.0,    5.4,   0.00,   0.00,  998.4,   77.4, -999.0
29-09-2022, 00:11:34,    232,    0.0,    5.5,   0.00,   0.00,  998.4,   77.5, -999.0
29-09-2022, 00:11:48,    234,    0.0,    5.4,   0.00,   0.00,  998.4,   77.5, -999.0
29-09-2022, 00:11:54,    234,    0.0,    5.4,   0.00,   0.00,  998.4,   77.4, -999.0
29-09-2022, 00:12:04,    234,    0.0,    5.4,   0.00,   0.00,  998.4,   77.4, -999.0
29-09-2022, 00:12:14,    234,    0.1,    5.5,   0.00,   0.00,  998.5,   77.6, -999.0
29-09-2022, 00:12:24,    234,    0.0,    5.4,   0.00,   0.00,  998.4,   77.5, -999.0
29-09-2022, 00:12:34,    234,    0.0,    5.4,   0.00,   0.00,  998.4,   77.4, -999.0
29-09-2022, 00:12:44,    235,    0.3,    5.4,   0.00,   0.00,  998.5,   77.6, -999.0
29-09-2022, 00:12:54,    235,    0.0,    5.4,   0.00,   0.00,  998.4,   77.3, -999.0
29-09-2022, 00:13:04,    235,    0.0,    5.4,   0.00,   0.00,  998.4,   77.4, -999.0
29-09-2022, 00:13:14,    235,    0.0,    5.3,   0.00,   0.00,  998.4,   77.4, -999.0
29-09-2022, 00:13:24,    235,    0.0,    5.3,   0.00,   0.00,  998.4,   77.4, -999.0
29-09-2022, 00:13:34,    236,    0.0,    5.4,   0.00,   0.00,  998.4,   77.4, -999.0
29-09-2022, 00:13:44,    234,    0.0,    5.4,   0.00,   0.00,  998.4,   77.4, -999.0
29-09-2022, 00:13:54,    238,    0.3,    5.4,   0.00,   0.00,  998.5,   77.7, -999.0
29-09-2022, 00:14:03,    237,    0.5,    5.4,   0.00,   0.00,  998.5,   77.8, -999.0
29-09-2022, 00:14:14,    239,    0.0,    5.4,   0.00,   0.00,  998.4,   77.5, -999.0
29-09-2022, 00:14:23,    242,    0.8,    5.4,   0.00,   0.00,  998.5,   77.8, -999.0
29-09-2022, 00:14:33,    242,    0.0,    5.3,   0.00,   0.00,  998.4,   77.5, -999.0
29-09-2022, 00:14:43,    242,    0.0,    5.4,   0.00,   0.00,  998.4,   77.5, -999.0
29-09-2022, 00:14:53,    243,    0.0,    5.4,   0.00,   0.00,  998.4,   77.5, -999.0
29-09-2022, 00:15:03,    243,    0.9,    5.4,   0.00,   0.00,  998.5,   77.8, -999.0
29-09-2022, 00:15:13,    246,    0.6,    5.4,   0.00,   0.00,  998.5,   77.8, -999.0
29-09-2022, 00:15:23,    251,    0.0,    5.4,   0.00,   0.00,  998.5,   77.6, -999.0
29-09-2022, 00:15:33,    251,    0.1,    5.4,   0.00,   0.00,  998.4,   77.6, -999.0
29-09-2022, 00:15:43,    242,    1.0,    5.4,   0.00,   0.00,  998.5,   77.8, -999.0
29-09-2022, 00:15:53,    242,    0.6,    5.4,   0.00,   0.00,  998.4,   77.7, -999.0
29-09-2022, 00:16:03,    240,    0.0,    5.3,   0.00,   0.00,  998.4,   77.3, -999.0
29-09-2022, 00:16:13,    240,    0.0,    5.3,   0.00,   0.00,  998.3,   77.4, -999.0
29-09-2022, 00:16:23,    240,    0.0,    5.4,   0.00,   0.00,  998.3,   77.5, -999.0
29-09-2022, 00:16:33,    240,    0.0,    5.5,   0.00,   0.00,  998.3,   77.5, -999.0
29-09-2022, 00:16:43,    241,    0.0,    5.5,   0.00,   0.00,  998.3,   77.4, -999.0
29-09-2022, 00:16:53,    240,    0.0,    5.4,   0.00,   0.00,  998.3,   77.4, -999.0
29-09-2022, 00:17:03,    241,    0.0,    5.4,   0.00,   0.00,  998.4,   77.4, -999.0
29-09-2022, 00:17:12,    240,    0.0,    5.4,   0.00,   0.00,  998.3,   77.4, -999.0
29-09-2022, 00:17:23,    242,    0.0,    5.5,   0.00,   0.00,  998.4,   77.4, -999.0
29-09-2022, 00:17:32,    245,    0.0,    5.4,   0.00,   0.00,  998.3,   77.3, -999.0
29-09-2022, 00:17:42,    247,    0.8,    5.5,   0.00,   0.00,  998.5,   77.5, -999.0
29-09-2022, 00:17:53,    248,    0.6,    5.5,   0.00,   0.00,  998.5,   77.4, -999.0
29-09-2022, 00:18:02,    248,    0.1,    5.4,   0.00,   0.00,  998.4,   77.2, -999.0
29-09-2022, 00:18:12,    248,    0.0,    5.4,   0.00,   0.00,  998.3,   77.0, -999.0
29-09-2022, 00:18:22,    248,    0.0,    5.4,   0.00,   0.00,  998.3,   77.1, -999.0
29-09-2022, 00:18:32,    248,    0.0,    5.4,   0.00,   0.00,  998.3,   77.1, -999.0
29-09-2022, 00:18:42,    248,    0.0,    5.4,   0.00,   0.00,  998.3,   77.3, -999.0
29-09-2022, 00:18:52,    248,    0.0,    5.4,   0.00,   0.00,  998.3,   77.3, -999.0
29-09-2022, 00:19:04,    248,    0.0,    5.3,   0.00,   0.00,  998.3,   77.2, -999.0
29-09-2022, 00:19:12,    248,    0.0,    5.4,   0.00,   0.00,  998.3,   77.3, -999.0
29-09-2022, 00:19:22,    248,    0.0,    5.4,   0.00,   0.00,  998.3,   77.4, -999.0
29-09-2022, 00:19:32,    248,    0.0,    5.4,   0.00,   0.00,  998.3,   77.4, -999.0
29-09-2022, 00:19:42,    248,    0.0,    5.4,   0.00,   0.00,  998.3,   77.4, -999.0
29-09-2022, 00:19:52,    247,    1.0,    5.4,   0.00,   0.00,  998.4,   77.5, -999.0
29-09-2022, 00:20:02,    262,    1.4,    5.5,   0.00,   0.00,  998.5,   77.6, -999.0
29-09-2022, 00:20:12,    261,    0.3,    5.4,   0.00,   0.00,  998.4,   77.4, -999.0
29-09-2022, 00:20:22,    261,    0.3,    5.4,   0.00,   0.00,  998.4,   77.4, -999.0
29-09-2022, 00:20:32,    261,    0.0,    5.3,   0.00,   0.00,  998.3,   77.1, -999.0
29-09-2022, 00:20:41,    261,    0.0,    5.3,   0.00,   0.00,  998.3,   77.1, -999.0
29-09-2022, 00:20:51,    260,    0.5,    5.2,   0.00,   0.00,  998.4,   77.4, -999.0
29-09-2022, 00:21:02,    259,    1.0,    5.4,   0.00,   0.00,  998.4,   77.6, -999.0
29-09-2022, 00:21:11,    259,    0.5,    5.4,   0.00,   0.00,  998.4,   77.5, -999.0
29-09-2022, 00:21:21,    225,    0.6,    5.4,   0.00,   0.00,  998.4,   77.6, -999.0
29-09-2022, 00:21:31,    224,    0.0,    5.3,   0.00,   0.00,  998.3,   77.2, -999.0
29-09-2022, 00:21:41,    226,    0.2,    5.4,   0.00,   0.00,  998.4,   77.4, -999.0
29-09-2022, 00:21:51,    233,    0.9,    5.4,   0.00,   0.00,  998.4,   77.7, -999.0
29-09-2022, 00:22:01,    232,    0.8,    5.4,   0.00,   0.00,  998.4,   77.6, -999.0
29-09-2022, 00:22:11,    234,    0.0,    5.3,   0.00,   0.00,  998.3,   77.2, -999.0
29-09-2022, 00:22:21,    235,    0.0,    5.2,   0.00,   0.00,  998.3,   77.3, -999.0
29-09-2022, 00:22:31,    235,    0.0,    5.2,   0.00,   0.00,  998.3,   77.2, -999.0
29-09-2022, 00:22:41,    234,    0.0,    5.3,   0.00,   0.00,  998.3,   77.2, -999.0
29-09-2022, 00:22:51,    235,    0.0,    5.2,   0.00,   0.00,  998.3,   77.2, -999.0
29-09-2022, 00:23:01,    234,    0.0,    5.1,   0.00,   0.00,  998.3,   77.3, -999.0
29-09-2022, 00:23:11,    235,    0.0,    5.2,   0.00,   0.00,  998.3,   77.3, -999.0
29-09-2022, 00:23:21,    235,    0.0,    5.2,   0.00,   0.00,  998.3,   77.4, -999.0
29-09-2022, 00:23:30,    238,    1.3,    5.3,   0.00,   0.00,  998.4,   77.7, -999.0
29-09-2022, 00:23:41,    234,    0.5,    5.3,   0.00,   0.00,  998.4,   77.7, -999.0
29-09-2022, 00:23:51,    234,    0.4,    5.2,   0.00,   0.00,  998.4,   77.6, -999.0
29-09-2022, 00:24:00,    233,    0.4,    5.3,   0.00,   0.00,  998.4,   77.7, -999.0
29-09-2022, 00:24:11,    234,    0.0,    5.2,   0.00,   0.00,  998.3,   77.4, -999.0
29-09-2022, 00:24:21,    233,    0.0,    5.2,   0.00,   0.00,  998.3,   77.4, -999.0
29-09-2022, 00:24:30,    234,    0.0,    5.2,   0.00,   0.00,  998.3,   77.8, -999.0
29-09-2022, 00:24:40,    233,    0.1,    5.3,   0.00,   0.00,  998.3,   77.8, -999.0
29-09-2022, 00:24:51,    236,    0.0,    5.2,   0.00,   0.00,  998.3,   77.6, -999.0
29-09-2022, 00:25:00,    235,    0.0,    5.2,   0.00,   0.00,  998.3,   77.6, -999.0
29-09-2022, 00:25:10,    235,    0.0,    5.3,   0.00,   0.00,  998.3,   77.6, -999.0
29-09-2022, 00:25:20,    234,    0.0,    5.2,   0.00,   0.00,  998.3,   77.4, -999.0
29-09-2022, 00:25:30,    234,    0.0,    5.2,   0.00,   0.00,  998.3,   77.4, -999.0
29-09-2022, 00:25:40,    232,    1.7,    5.3,   0.00,   0.00,  998.4,   77.9, -999.0
29-09-2022, 00:25:50,    236,    1.0,    5.3,   0.00,   0.00,  998.4,   78.0, -999.0
29-09-2022, 00:26:00,    242,    1.0,    5.3,   0.00,   0.00,  998.4,   77.8, -999.0
29-09-2022, 00:26:10,    239,    1.5,    5.2,   0.00,   0.00,  998.4,   77.9, -999.0
29-09-2022, 00:26:20,    251,    0.7,    5.3,   0.00,   0.00,  998.4,   77.7, -999.0
29-09-2022, 00:26:30,    236,    1.5,    5.2,   0.00,   0.00,  998.4,   77.8, -999.0
29-09-2022, 00:26:40,    239,    1.0,    5.3,   0.00,   0.00,  998.4,   77.9, -999.0
29-09-2022, 00:26:50,    240,    0.1,    5.2,   0.00,   0.00,  998.3,   77.7, -999.0
29-09-2022, 00:27:00,    243,    0.4,    5.2,   0.00,   0.00,  998.4,   77.7, -999.0
29-09-2022, 00:27:09,    250,    0.9,    5.2,   0.00,   0.00,  998.4,   77.9, -999.0
29-09-2022, 00:27:20,    252,    0.1,    5.1,   0.00,   0.00,  998.3,   77.8, -999.0
29-09-2022, 00:27:30,    242,    0.9,    5.2,   0.00,   0.00,  998.4,   78.0, -999.0
29-09-2022, 00:27:39,    242,    0.5,    5.3,   0.00,   0.00,  998.4,   78.2, -999.0
29-09-2022, 00:27:49,    242,    0.2,    5.2,   0.00,   0.00,  998.3,   78.0, -999.0
29-09-2022, 00:28:00,    242,    0.3,    5.3,   0.00,   0.00,  998.4,   78.1, -999.0
29-09-2022, 00:28:09,    241,    0.3,    5.2,   0.00,   0.00,  998.4,   78.2, -999.0
29-09-2022, 00:28:19,    242,    0.4,    5.2,   0.00,   0.00,  998.4,   78.1, -999.0
29-09-2022, 00:28:29,    244,    0.0,    5.2,   0.00,   0.00,  998.3,   77.7, -999.0
29-09-2022, 00:28:39,    247,    0.0,    5.1,   0.00,   0.00,  998.3,   77.9, -999.0
29-09-2022, 00:28:49,    248,    0.0,    5.2,   0.00,   0.00,  998.3,   77.7, -999.0
29-09-2022, 00:28:59,    248,    0.0,    5.2,   0.00,   0.00,  998.3,   77.8, -999.0
29-09-2022, 00:29:09,    246,    0.0,    5.1,   0.00,   0.00,  998.3,   77.7, -999.0
29-09-2022, 00:29:19,    246,    0.0,    5.1,   0.00,   0.00,  998.3,   77.7, -999.0
29-09-2022, 00:29:29,    251,    0.2,    5.2,   0.00,   0.00,  998.3,   77.8, -999.0
29-09-2022, 00:29:39,    250,    0.3,    5.2,   0.00,   0.00,  998.3,   77.8, -999.0
29-09-2022, 00:29:49,    249,    0.0,    5.1,   0.00,   0.00,  998.2,   77.6, -999.0
29-09-2022, 00:29:59,    250,    0.0,    5.1,   0.00,   0.00,  998.2,   77.7, -999.0
29-09-2022, 00:30:09,    252,    0.3,    5.2,   0.00,   0.00,  998.3,   77.9, -999.0
29-09-2022, 00:30:18,    258,    0.9,    5.3,   0.00,   0.00,  998.4,   78.2, -999.0
29-09-2022, 00:30:29,    254,    0.2,    5.3,   0.00,   0.00,  998.3,   77.9, -999.0
29-09-2022, 00:30:39,    254,    0.0,    5.1,   0.00,   0.00,  998.2,   77.6, -999.0
29-09-2022, 00:30:48,    253,    0.0,    5.2,   0.00,   0.00,  998.3,   77.8, -999.0
29-09-2022, 00:30:58,    252,    0.1,    5.2,   0.00,   0.00,  998.3,   78.0, -999.0
29-09-2022, 00:31:09,    253,    0.0,    5.2,   0.00,   0.00,  998.2,   77.8, -999.0
29-09-2022, 00:31:18,    253,    0.0,    5.1,   0.00,   0.00,  998.2,   77.8, -999.0
29-09-2022, 00:31:28,    254,    0.0,    5.1,   0.00,   0.00,  998.3,   77.7, -999.0
29-09-2022, 00:31:38,    255,    0.0,    5.2,   0.00,   0.00,  998.2,   77.9, -999.0
29-09-2022, 00:31:48,    249,    0.6,    5.2,   0.00,   0.00,  998.4,   78.1, -999.0
29-09-2022, 00:31:58,    252,    1.8,    5.3,   0.00,   0.00,  998.4,   78.3, -999.0
29-09-2022, 00:32:08,    269,    1.7,    5.3,   0.00,   0.00,  998.4,   78.3, -999.0
29-09-2022, 00:32:18,    268,    1.0,    5.2,   0.00,   0.00,  998.5,   78.2, -999.0
29-09-2022, 00:32:28,    268,    0.0,    5.2,   0.00,   0.00,  998.3,   77.9, -999.0
29-09-2022, 00:32:38,    269,    0.0,    5.2,   0.00,   0.00,  998.3,   78.0, -999.0
29-09-2022, 00:32:48,    268,    0.0,    5.0,   0.00,   0.00,  998.3,   77.9, -999.0
29-09-2022, 00:32:58,    268,    0.0,    5.2,   0.00,   0.00,  998.2,   77.9, -999.0
29-09-2022, 00:33:08,    268,    0.0,    5.0,   0.00,   0.00,  998.3,   78.0, -999.0
29-09-2022, 00:33:18,    268,    0.0,    5.2,   0.00,   0.00,  998.3,   78.0, -999.0
29-09-2022, 00:33:28,    237,    0.0,    5.1,   0.00,   0.00,  998.2,   78.0, -999.0
29-09-2022, 00:33:38,    237,    0.0,    5.0,   0.00,   0.00,  998.2,   77.9, -999.0
29-09-2022, 00:33:48,    236,    0.0,    5.2,   0.00,   0.00,  998.3,   78.0, -999.0
29-09-2022, 00:33:58,    240,    0.0,    5.2,   0.00,   0.00,  998.3,   77.9, -999.0
29-09-2022, 00:34:07,    241,    0.0,    5.1,   0.00,   0.00,  998.3,   77.9, -999.0
29-09-2022, 00:34:18,    240,    0.0,    5.1,   0.00,   0.00,  998.3,   78.0, -999.0
29-09-2022, 00:34:27,    243,    0.0,    5.2,   0.00,   0.00,  998.3,   78.0, -999.0
29-09-2022, 00:34:37,    246,    0.0,    5.0,   0.00,   0.00,  998.3,   77.9, -999.0
29-09-2022, 00:34:47,    246,    0.0,    5.2,   0.00,   0.00,  998.3,   77.9, -999.0
29-09-2022, 00:34:57,    247,    0.0,    5.1,   0.00,   0.00,  998.3,   77.9, -999.0
29-09-2022, 00:35:07,    247,    0.0,    5.1,   0.00,   0.00,  998.3,   77.9, -999.0
29-09-2022, 00:35:17,    247,    0.0,    5.2,   0.00,   0.00,  998.3,   78.0, -999.0
29-09-2022, 00:35:27,    247,    0.0,    5.2,   0.00,   0.00,  998.3,   78.0, -999.0
29-09-2022, 00:35:37,    251,    0.0,    5.0,   0.00,   0.00,  998.3,   77.9, -999.0
29-09-2022, 00:35:47,    253,    1.4,    5.2,   0.00,   0.00,  998.4,   78.3, -999.0
29-09-2022, 00:35:57,    253,    0.7,    5.2,   0.00,   0.00,  998.4,   78.2, -999.0
29-09-2022, 00:36:07,    252,    0.0,    5.2,   0.00,   0.00,  998.3,   78.0, -999.0
29-09-2022, 00:36:17,    251,    0.2,    5.2,   0.00,   0.00,  998.4,   78.2, -999.0
29-09-2022, 00:36:27,    250,    0.1,    5.3,   0.00,   0.00,  998.3,   78.1, -999.0
29-09-2022, 00:36:37,    250,    0.0,    5.2,   0.00,   0.00,  998.3,   78.0, -999.0
29-09-2022, 00:36:47,    250,    0.0,    5.2,   0.00,   0.00,  998.3,   78.0, -999.0
29-09-2022, 00:36:57,    250,    0.0,    5.2,   0.00,   0.00,  998.2,   78.0, -999.0
29-09-2022, 00:37:07,    251,    0.0,    5.3,   0.00,   0.00,  998.3,   78.1, -999.0
29-09-2022, 00:37:16,    257,    0.0,    5.3,   0.00,   0.00,  998.3,   78.1, -999.0
29-09-2022, 00:37:27,    257,    0.1,    5.3,   0.00,   0.00,  998.4,   78.2, -999.0
29-09-2022, 00:37:37,    257,    0.0,    5.2,   0.00,   0.00,  998.3,   77.8, -999.0
29-09-2022, 00:37:46,    261,    0.0,    5.3,   0.00,   0.00,  998.3,   77.9, -999.0
29-09-2022, 00:37:56,    226,    0.3,    5.3,   0.00,   0.00,  998.4,   78.1, -999.0
29-09-2022, 00:38:06,    226,    0.0,    5.2,   0.00,   0.00,  998.3,   77.9, -999.0
29-09-2022, 00:38:16,    226,    0.0,    5.3,   0.00,   0.00,  998.2,   77.9, -999.0
29-09-2022, 00:38:26,    226,    0.0,    5.3,   0.00,   0.00,  998.3,   77.8, -999.0
29-09-2022, 00:38:36,    226,    0.0,    5.2,   0.00,   0.00,  998.3,   77.8, -999.0
29-09-2022, 00:38:46,    226,    0.0,    5.3,   0.00,   0.00,  998.3,   77.8, -999.0
29-09-2022, 00:38:56,    228,    0.1,    5.3,   0.00,   0.00,  998.3,   77.9, -999.0
29-09-2022, 00:39:06,    227,    0.7,    5.4,   0.00,   0.00,  998.4,   78.1, -999.0
29-09-2022, 00:39:16,    230,    1.1,    5.4,   0.00,   0.00,  998.4,   78.0, -999.0
29-09-2022, 00:39:26,    235,    0.5,    5.4,   0.00,   0.00,  998.4,   78.1, -999.0
29-09-2022, 00:39:36,    236,    0.3,    5.4,   0.00,   0.00,  998.4,   78.2, -999.0
29-09-2022, 00:39:46,    229,    0.3,    5.3,   0.00,   0.00,  998.4,   78.2, -999.0
29-09-2022, 00:39:56,    234,    0.0,    5.3,   0.00,   0.00,  998.3,   77.9, -999.0
29-09-2022, 00:40:06,    234,    0.0,    5.3,   0.00,   0.00,  998.3,   77.7, -999.0
29-09-2022, 00:40:16,    236,    0.0,    5.3,   0.00,   0.00,  998.3,   77.7, -999.0
29-09-2022, 00:40:25,    242,    0.2,    5.3,   0.00,   0.00,  998.3,   77.8, -999.0
29-09-2022, 00:40:36,    242,    0.1,    5.3,   0.00,   0.00,  998.3,   77.8, -999.0
29-09-2022, 00:40:46,    242,    0.4,    5.4,   0.00,   0.00,  998.4,   77.9, -999.0
29-09-2022, 00:40:55,    242,    0.0,    5.3,   0.00,   0.00,  998.3,   77.6, -999.0
29-09-2022, 00:41:05,    230,    0.6,    5.3,   0.00,   0.00,  998.5,   78.1, -999.0
29-09-2022, 00:41:16,    228,    0.8,    5.3,   0.00,   0.00,  998.4,   78.0, -999.0
29-09-2022, 00:41:25,    229,    0.2,    5.3,   0.00,   0.00,  998.4,   77.8, -999.0
29-09-2022, 00:41:35,    231,    0.0,    5.3,   0.00,   0.00,  998.3,   77.6, -999.0
29-09-2022, 00:41:45,    231,    0.2,    5.3,   0.00,   0.00,  998.4,   77.8, -999.0
29-09-2022, 00:41:55,    236,    0.2,    5.3,   0.00,   0.00,  998.4,   77.8, -999.0
29-09-2022, 00:42:05,    236,    0.2,    5.3,   0.00,   0.00,  998.4,   77.7, -999.0
29-09-2022, 00:42:15,    237,    0.0,    5.2,   0.00,   0.00,  998.3,   77.5, -999.0
29-09-2022, 00:42:25,    235,    0.1,    5.3,   0.00,   0.00,  998.3,   77.7, -999.0
29-09-2022, 00:42:35,    236,    1.1,    5.4,   0.00,   0.00,  998.4,   78.0, -999.0
29-09-2022, 00:42:47,    236,    0.8,    5.4,   0.00,   0.00,  998.4,   78.0, -999.0
29-09-2022, 00:42:55,    237,    0.1,    5.4,   0.00,   0.00,  998.4,   77.7, -999.0
29-09-2022, 00:43:05,    237,    0.0,    5.3,   0.00,   0.00,  998.3,   77.7, -999.0
29-09-2022, 00:43:15,    239,    0.0,    5.4,   0.00,   0.00,  998.3,   77.7, -999.0
29-09-2022, 00:43:25,    239,    0.0,    5.3,   0.00,   0.00,  998.3,   77.8, -999.0
29-09-2022, 00:43:35,    240,    0.0,    5.3,   0.00,   0.00,  998.3,   77.6, -999.0
29-09-2022, 00:43:45,    241,    0.0,    5.2,   0.00,   0.00,  998.3,   77.5, -999.0
29-09-2022, 00:43:54,    241,    0.0,    5.3,   0.00,   0.00,  998.3,   77.6, -999.0
29-09-2022, 00:44:04,    242,    0.0,    5.3,   0.00,   0.00,  998.2,   77.5, -999.0
29-09-2022, 00:44:15,    244,    0.0,    5.3,   0.00,   0.00,  998.2,   77.5, -999.0
29-09-2022, 00:44:24,    253,    0.4,    5.3,   0.00,   0.00,  998.3,   77.6, -999.0
29-09-2022, 00:44:34,    255,    1.0,    5.4,   0.00,   0.00,  998.4,   77.9, -999.0
29-09-2022, 00:44:44,    252,    0.8,    5.4,   0.00,   0.00,  998.4,   77.8, -999.0
29-09-2022, 00:44:54,    249,    0.3,    5.2,   0.00,   0.00,  998.4,   77.8, -999.0
29-09-2022, 00:45:04,    253,    0.2,    5.3,   0.00,   0.00,  998.4,   77.8, -999.0
29-09-2022, 00:45:14,    253,    0.0,    5.4,   0.00,   0.00,  998.3,   77.5, -999.0
29-09-2022, 00:45:24,    251,    0.0,    5.2,   0.00,   0.00,  998.2,   77.6, -999.0
29-09-2022, 00:45:34,    252,    0.0,    5.3,   0.00,   0.00,  998.2,   77.5, -999.0
29-09-2022, 00:45:44,    252,    0.0,    5.3,   0.00,   0.00,  998.2,   77.5, -999.0
29-09-2022, 00:45:54,    250,    0.7,    5.4,   0.00,   0.00,  998.4,   77.9, -999.0
29-09-2022, 00:46:04,    249,    1.9,    5.4,   0.00,   0.00,  998.4,   78.0, -999.0
29-09-2022, 00:46:14,    245,    1.3,    5.4,   0.00,   0.00,  998.4,   77.8, -999.0
29-09-2022, 00:46:24,    229,    1.1,    5.3,   0.00,   0.00,  998.4,   77.8, -999.0
29-09-2022, 00:46:34,    230,    0.6,    5.3,   0.00,   0.00,  998.4,   77.8, -999.0
29-09-2022, 00:46:44,    231,    0.6,    5.4,   0.00,   0.00,  998.4,   77.9, -999.0